GEFSCGP_850_meantemp_006.txt.gz
Temperature
26 23 22 23 25 25 26 26 25 27 28 25 21 18 17 16 16 16 16 15 15 14 14 15 16 17 18 18 18 18 18 17 17 18 18 19 19 19 19 19 19 18 18 17
23 23 25 26 27 27 26 25 25 26 27 26 19 18 17 17 15 15 14 14 14 14 15 15 16 17 17 18 18 17 17 17 18 18 19 19 19 19 19 19 18 18 18 17
25 26 27 27 26 26 26 26 26 26 25 24 21 18 17 17 17 16 15 15 15 14 15 16 17 18 18 17 17 17 17 18 18 19 19 19 19 19 19 19 19 18 18 17
25 26 26 26 25 26 24 26 27 26 24 22 22 18 17 17 16 16 15 15 15 15 15 16 17 17 18 17 17 18 18 18 19 19 19 19 19 19 19 19 19 19 19 18
23 25 25 25 25 26 25 26 26 25 24 21 21 18 17 17 16 15 16 15 16 16 15 15 15 16 16 17 17 17 17 17 18 18 18 19 19 19 19 19 19 19 19 18
24 26 26 26 26 26 26 25 22 20 19 20 21 19 17 16 16 16 16 16 16 16 16 16 15 16 16 16 16 16 16 16 16 17 17 17 17 18 18 18 18 18 18 18
23 24 25 26 26 26 23 21 19 20 19 20 20 18 16 17 17 17 16 16 16 16 16 16 16 16 16 16 16 16 16 16 16 16 16 16 16 16 16 17 17 17 17 17
22 22 25 26 27 26 25 21 20 20 19 19 19 18 16 18 18 17 17 16 16 16 16 16 16 16 15 15 15 15 15 15 15 15 15 15 15 15 14 14 14 15 15 16
22 23 25 27 26 25 25 22 21 19 20 18 18 17 17 18 17 17 16 16 16 16 16 16 16 15 15 15 14 14 14 15 15 15 14 14 14 14 14 14 14 14 13 14
22 23 24 26 25 24 24 23 19 19 20 19 19 18 15 16 16 16 16 16 16 16 16 16 16 16 15 15 14 14 13 13 14 14 14 14 13 13 13 13 13 13 13 13
23 22 22 23 24 23 23 23 20 18 18 18 18 18 17 16 16 16 16 16 16 16 16 16 16 16 15 15 14 14 13 13 13 14 14 14 14 13 13 12 12 12 12 13
21 19 19 22 23 23 23 22 20 19 19 17 17 17 16 16 16 16 16 17 17 17 16 16 15 15 14 14 14 14 14 13 13 13 13 13 13 13 12 12 12 12 12 12
21 19 18 19 20 21 21 21 20 17 16 17 16 16 16 15 16 16 16 16 16 15 15 14 14 14 14 14 14 14 13 13 13 13 13 13 13 12 12 12 12 12 12 12
20 18 18 19 19 20 20 20 19 17 15 16 17 16 15 14 14 15 15 15 15 14 14 14 14 14 13 13 13 13 13 13 13 13 13 13 12 12 12 12 12 12 11 11
18 18 20 20 21 20 20 20 20 18 18 17 17 15 14 13 14 14 15 14 14 14 14 14 14 13 13 13 13 12 12 12 12 12 12 12 12 12 12 12 11 11 11 11
18 19 18 19 20 20 18 19 19 19 18 17 15 15 14 14 15 14 14 14 14 13 14 13 13 13 13 13 13 12 12 12 12 11 12 12 12 12 12 11 11 11 11 11
18 18 19 18 20 20 16 18 17 17 16 15 14 13 13 12 13 14 14 14 14 14 14 13 13 13 13 12 12 12 11 11 11 11 11 11 11 11 11 11 11 11 11 11
19 17 16 17 18 19 18 19 18 17 14 15 15 13 13 13 14 14 14 14 14 13 13 13 12 12 12 12 11 11 11 10 10 10 10 10 10 10 10 10 10 10 10 10
18 18 16 16 17 18 18 18 18 17 15 14 13 13 14 14 13 13 14 13 13 13 12 12 11 11 11 10 10 9 9 9 8 8 8 8 8 8 8 8 9 9 9 9
17 16 16 16 17 17 17 18 18 17 15 14 14 13 14 12 10 11 13 13 12 11 11 10 10 9 9 8 7 7 7 6 6 6 6 6 6 6 6 7 7 7 8 8
17 16 15 16 16 16 17 17 16 13 13 14 15 15 14 12 11 13 13 12 11 10 10 9 8 7 7 6 6 5 5 4 4 4 4 4 4 5 5 5 5 6 6 7
17 16 16 15 15 15 16 16 14 13 15 15 15 15 14 14 13 13 12 11 10 9 8 7 7 6 6 5 4 4 4 3 3 3 3 3 4 4 4 4 4 4 5 5
16 15 14 15 14 16 17 16 16 16 16 15 15 14 14 13 12 11 11 10 9 8 7 6 5 4 4 4 4 3 3 3 3 3 3 3 3 4 4 4 4 4 4 5
17 16 15 15 15 16 16 16 16 16 15 15 14 14 13 12 11 10 9 9 8 7 6 5 4 4 4 4 4 4 3 3 3 3 3 3 3 3 4 4 4 4 4 4
17 17 15 15 16 16 16 16 16 15 15 14 14 13 12 11 10 9 9 8 7 6 5 5 4 4 4 4 4 4 4 3 3 3 3 3 3 3 3 4 4 4 4 4
16 15 15 14 15 14 16 16 15 15 14 13 13 12 11 10 9 9 8 7 6 5 5 5 4 4 4 4 4 4 4 4 3 3 3 3 3 3 3 3 4 4 4 5

GEFSCGP_850_meantemp_012.txt.gz
Temperature
23 21 22 22 22 22 23 23 23 21 18 17 16 15 15 15 14 14 14 15 15 16 16 17 18 18 18 18 18 17 17 17 17 17 18 18 18 18 18 18 18 17 17 17
21 22 23 23 24 23 23 24 22 19 19 17 16 15 15 15 14 14 14 15 16 17 17 17 17 17 17 17 17 17 16 17 17 17 17 17 17 17 18 18 18 18 17 17
24 23 24 25 24 25 24 24 23 20 18 17 17 16 15 15 14 14 14 15 15 16 16 16 16 16 16 16 16 16 16 16 16 17 17 17 17 17 18 18 18 18 17 17
23 23 24 24 24 25 23 24 24 22 19 17 18 17 16 15 14 14 14 14 15 15 16 16 16 16 16 17 17 17 17 17 17 17 17 16 16 17 17 17 17 17 17 17
22 23 24 24 25 25 24 22 22 21 20 18 18 17 16 15 14 14 14 14 14 15 15 16 16 16 16 16 17 17 17 16 16 16 16 16 15 15 15 15 16 16 17 17
22 23 23 24 24 24 23 21 19 17 17 18 18 18 17 15 15 14 14 14 14 15 15 16 16 16 16 16 16 16 16 16 16 15 15 15 15 15 15 15 15 15 15 16
21 22 23 24 24 23 21 20 18 19 18 18 18 18 17 16 16 15 15 15 15 15 15 16 16 16 16 16 16 16 16 16 15 15 15 14 14 14 14 14 14 14 14 14
21 21 23 23 23 23 21 20 19 20 19 17 17 17 16 16 16 16 16 15 15 15 15 16 16 16 15 15 15 15 15 15 15 14 14 14 14 14 14 14 14 14 14 14
21 21 23 23 23 23 22 19 18 17 18 17 17 17 16 16 15 15 15 15 15 15 15 15 15 15 15 15 14 14 14 14 14 14 14 14 14 13 13 13 13 13 13 13
21 21 21 22 22 21 20 18 16 17 18 18 18 17 14 14 14 14 14 15 15 15 15 15 15 14 14 14 14 14 14 14 14 14 14 14 13 13 13 13 13 12 12 12
20 19 20 20 19 19 19 18 15 14 15 17 17 15 14 13 13 13 14 15 15 15 15 14 14 14 13 13 13 13 13 13 13 13 13 13 13 13 13 13 13 13 12 12
18 16 18 19 19 19 18 17 16 17 16 14 14 14 13 13 13 14 14 15 15 14 14 14 13 13 13 13 13 13 13 13 13 13 13 12 12 12 12 12 12 12 12 12
17 16 17 18 18 18 18 17 15 13 13 14 14 15 13 12 13 14 14 15 14 14 14 13 13 13 12 12 12 12 12 12 12 12 12 12 12 12 12 12 12 12 12 12
16 15 16 18 18 18 18 17 16 15 14 15 15 14 13 12 12 13 14 14 14 14 13 13 12 12 12 11 11 11 11 11 11 11 11 11 11 11 11 11 11 11 11 12
16 17 18 17 18 18 17 17 17 16 16 14 14 14 13 12 12 13 14 14 13 13 13 12 12 11 11 10 10 9 9 9 9 9 9 9 10 10 10 10 10 11 11 11
15 17 18 18 18 17 17 17 17 17 16 15 14 13 13 14 13 13 13 13 13 13 12 11 11 10 10 9 8 8 7 7 7 7 7 7 7 8 8 9 9 10 10 10
14 16 16 16 17 17 16 16 16 16 15 14 13 12 12 11 11 12 13 13 12 12 11 10 10 9 8 7 7 6 6 5 5 5 5 5 6 6 6 7 7 8 9 9
15 14 13 15 17 18 16 17 17 16 14 13 13 12 12 12 13 13 13 12 11 11 10 9 8 8 7 6 5 5 4 4 4 4 4 4 4 4 4 5 5 6 6 7
14 14 13 14 16 16 16 17 16 15 13 13 12 11 12 13 11 12 12 11 10 10 9 8 7 6 6 5 4 4 4 4 4 4 4 4 4 4 3 3 4 4 5 6
13 13 13 14 17 16 16 17 16 15 13 13 13 11 12 11 8 9 11 10 10 9 8 7 6 6 5 4 4 4 4 4 3 3 4 4 3 3 3 3 3 3 4 4
16 14 14 14 15 15 15 16 15 14 13 15 14 13 13 10 10 11 10 9 8 8 7 7 6 5 5 4 4 4 4 4 4 4 4 4 3 3 3 3 3 3 3 4
15 15 14 12 15 15 16 14 13 14 16 15 14 13 13 12 11 10 9 8 8 7 7 7 6 6 5 4 4 4 4 4 4 4 4 4 3 3 3 3 3 3 3 3
14 14 13 13 14 15 16 16 17 16 15 14 14 13 12 11 10 9 8 8 8 7 7 6 6 6 6 5 5 4 5 4 4 4 4 4 3 3 3 3 3 3 3 3
14 12 12 12 13 15 16 16 16 15 15 14 13 13 11 10 9 8 8 8 8 8 7 6 6 6 6 6 5 5 5 5 4 4 4 4 3 3 3 3 3 3 3 3
15 12 12 13 13 15 15 16 16 15 14 14 13 12 10 9 9 8 8 8 8 8 7 7 6 6 6 6 6 6 5 5 5 4 4 4 4 4 4 3 3 3 4 4
13 13 13 14 16 14 17 17 16 15 14 13 12 11 10 9 8 8 8 7 7 7 7 7 7 6 6 6 6 6 6 6 5 5 4 4 4 4 4 4 4 4 4 4

GEFSCGP_850_meantemp_018.txt.gz
Temperature
28 29 29 29 29 29 29 29 29 27 25 25 23 21 21 20 20 20 20 19 19 18 17 16 16 17 16 16 16 17 17 17 17 17 17 16 16 16 16 16 16 16 16 16
29 29 29 29 29 29 29 29 28 26 24 24 23 21 21 21 20 20 20 19 19 19 18 17 17 17 17 17 17 17 17 17 17 17 17 16 16 15 15 15 16 16 17 17
28 29 29 29 29 29 29 29 29 27 25 25 24 23 22 22 21 20 19 19 19 18 18 18 18 17 17 17 17 17 17 17 17 17 16 15 15 16 15 15 15 16 16 17
29 29 28 28 29 29 29 29 28 27 26 27 26 25 23 23 22 21 20 20 19 18 18 18 18 17 17 17 16 16 16 16 16 16 15 15 15 15 14 14 14 14 15 16
28 28 28 28 28 28 28 28 28 27 27 27 26 26 23 23 23 22 21 20 19 19 18 18 17 17 17 16 16 16 16 16 16 16 15 15 15 15 15 14 14 14 14 14
28 28 28 28 28 28 28 28 27 28 28 26 26 26 23 23 23 23 22 20 19 18 18 18 17 17 16 16 16 15 15 15 14 14 14 14 14 14 14 14 14 14 14 14
28 28 29 29 29 29 29 28 27 27 26 26 26 25 22 23 23 23 22 21 19 19 18 18 17 17 16 16 15 15 14 13 13 13 13 13 13 13 13 13 13 13 14 14
27 27 28 28 28 28 28 28 26 25 26 26 25 24 22 22 21 21 21 20 19 19 18 18 17 16 16 15 15 14 13 13 13 13 12 12 12 12 13 13 13 13 13 13
27 27 27 27 28 28 28 28 28 27 26 26 25 23 22 21 21 21 20 20 19 18 18 17 17 16 15 15 14 13 13 12 12 12 12 12 12 11 12 11 11 12 12 12
27 27 27 27 28 27 27 27 27 26 25 25 25 24 22 22 22 21 21 20 19 18 18 17 16 16 15 14 14 13 12 12 11 11 11 11 11 11 11 11 11 11 11 11
27 27 27 27 26 26 27 26 26 26 25 24 24 24 23 22 21 21 21 20 19 18 17 17 16 15 14 14 13 13 12 11 11 10 10 10 10 10 10 10 10 10 10 10
26 27 26 26 25 26 26 25 26 25 24 24 24 24 22 22 21 20 20 19 18 17 16 16 15 14 14 13 12 12 11 10 10 9 9 9 8 9 9 9 9 9 9 9
26 26 25 25 25 26 25 25 25 25 24 24 23 24 22 21 20 20 19 18 17 16 16 15 14 14 13 12 11 11 10 9 9 8 8 8 8 8 8 8 8 8 8 8
24 26 26 26 25 26 25 24 24 25 25 24 23 23 23 22 21 20 19 17 17 16 15 14 13 13 12 11 10 10 9 8 8 7 7 7 7 7 7 7 7 7 7 7
26 26 26 26 25 25 25 24 23 23 23 23 22 22 22 21 20 19 18 17 16 15 15 14 13 12 11 10 9 9 8 7 7 6 6 6 6 6 6 6 6 6 6 6
25 26 25 25 25 25 24 23 23 23 23 23 22 22 22 20 19 18 17 16 16 15 14 13 12 11 10 10 9 8 7 7 6 6 6 6 6 6 6 6 5 5 5 5
26 25 25 25 25 24 24 24 23 23 23 22 22 22 22 20 19 17 16 16 15 14 13 12 11 11 10 9 8 7 7 6 6 6 6 6 5 5 5 5 5 5 5 5
25 24 25 25 24 23 24 24 23 22 22 22 22 22 21 19 18 16 16 15 14 13 12 11 11 10 10 9 8 7 7 6 6 6 6 5 5 5 5 5 4 4 4 4
24 24 25 25 24 25 24 23 23 22 22 22 21 21 20 19 18 19 16 14 13 12 11 11 10 10 9 8 7 7 6 6 6 6 6 5 5 5 5 4 4 4 4 4
23 23 24 24 23 23 24 23 22 22 22 22 21 20 19 18 19 19 16 14 13 11 11 10 10 9 9 8 7 6 6 6 6 6 5 5 5 5 4 4 4 4 4 4
24 24 24 24 23 25 24 22 21 22 22 21 20 19 18 18 17 16 14 13 12 11 10 10 9 9 8 7 6 6 6 6 6 5 5 5 5 5 5 5 4 4 4 4
25 25 24 23 23 24 23 22 22 22 21 20 19 18 17 16 16 15 14 12 11 11 10 10 9 9 8 7 6 6 6 6 5 5 5 5 5 5 5 5 5 4 4 4
24 25 25 24 24 23 22 22 22 21 20 19 19 18 17 16 15 14 13 12 11 10 10 9 9 8 8 7 7 6 6 5 5 5 5 5 5 5 5 5 5 5 4 4
25 22 23 23 24 23 22 21 21 20 19 18 18 17 16 15 15 14 13 12 11 10 9 9 8 8 8 7 7 6 6 6 5 5 5 5 5 5 5 5 5 5 5 4
25 23 23 23 23 23 22 21 21 20 19 18 17 16 15 15 14 13 12 11 10 10 9 8 8 7 7 7 7 6 6 6 5 5 5 5 5 6 6 6 6 5 5 4
25 24 23 24 24 23 23 22 20 19 18 18 17 16 15 14 13 12 12 11 10 9 9 8 7 7 7 7 7 6 6 6 6 5 5 5 6 6 6 6 6 6 5 5

GEFSCGP_850_meantemp_024.txt.gz
Temperature
30 30 28 27 27 29 29 28 26 26 27 27 27 26 25 25 24 24 23 22 21 20 20 19 19 19 18 18 17 17 17 17 16 17 17 16 16 17 17 17 16 16 16 16
30 29 29 29 29 30 31 30 29 27 26 27 27 26 25 26 26 25 23 22 21 21 20 20 20 20 19 18 18 17 16 16 16 16 16 16 16 16 17 17 16 16 15 16
30 30 30 31 31 31 30 29 29 27 25 26 26 24 24 24 24 24 24 23 22 22 21 21 20 20 20 19 18 17 16 16 15 15 15 15 15 15 16 16 16 15 15 15
29 31 31 31 31 30 27 28 29 29 27 25 24 22 22 22 23 24 23 23 22 22 21 21 21 20 20 19 18 17 17 16 15 15 14 14 14 14 14 15 15 15 15 15
28 30 31 30 31 31 29 30 28 26 25 24 21 19 20 21 22 23 24 23 23 22 22 21 21 20 19 19 18 17 17 16 15 14 14 13 13 13 13 13 14 14 14 14
28 31 32 31 31 30 30 29 25 23 22 20 20 19 21 22 23 24 24 24 23 23 22 21 21 20 19 18 18 17 16 15 14 14 13 13 12 12 12 13 13 13 14 14
25 27 28 31 30 26 28 27 24 21 19 19 21 20 23 25 25 25 25 24 23 23 22 22 21 20 19 18 18 17 16 15 14 13 13 12 12 12 12 12 13 13 13 13
24 22 26 30 30 28 29 29 27 25 25 24 23 21 23 26 26 25 25 24 24 23 23 22 21 20 19 18 17 16 15 15 14 13 12 12 12 11 11 11 11 11 12 12
28 27 29 31 31 30 29 29 30 28 28 27 24 23 24 25 26 26 25 25 24 23 22 22 21 20 19 18 17 16 15 14 13 13 12 12 11 11 10 10 10 10 11 11
30 29 30 31 31 31 30 30 29 27 26 26 26 24 23 24 25 25 25 25 24 23 22 21 20 19 18 17 16 15 14 13 13 12 11 11 10 10 10 9 9 9 9 10
30 29 29 30 29 29 29 29 28 28 27 26 26 25 25 25 25 25 25 24 23 22 21 20 19 18 17 16 15 14 14 13 12 12 11 10 10 9 9 9 9 9 9 9
30 29 28 27 28 29 29 28 28 26 26 27 26 25 26 26 26 25 24 23 22 21 20 19 18 17 16 15 14 14 13 12 12 11 10 10 9 9 9 8 8 8 8 8
28 28 27 25 24 27 29 29 28 27 27 26 26 25 26 27 26 24 23 22 21 20 19 18 17 16 15 14 14 13 12 12 11 10 10 9 9 9 8 8 8 8 8 8
27 28 27 27 27 28 29 29 29 27 26 26 26 26 26 25 24 24 23 22 21 20 19 18 17 16 15 14 13 12 12 11 10 10 9 9 9 8 8 8 8 8 7 7
28 28 28 29 29 29 29 28 28 27 27 26 26 26 26 25 24 23 22 21 20 19 18 17 16 15 14 13 13 12 11 11 10 10 9 9 8 8 8 8 8 7 7 7
29 27 27 28 29 29 28 29 28 27 27 26 26 26 26 25 24 23 22 21 20 19 18 17 16 15 14 13 12 12 11 11 10 9 9 9 8 8 8 8 8 7 7 7
28 27 26 26 28 28 27 28 28 27 27 26 25 25 25 24 23 22 21 20 19 18 17 16 15 14 14 13 12 12 11 10 10 9 9 9 8 8 8 8 7 7 7 7
27 26 26 26 26 25 27 29 28 27 27 27 26 25 24 24 23 22 21 19 18 18 16 15 15 14 13 13 12 11 11 10 9 9 9 8 8 8 8 7 7 7 7 7
28 27 26 26 25 26 28 28 27 26 26 27 26 25 24 24 23 22 19 19 18 17 16 15 14 14 13 12 12 11 10 10 9 9 8 8 8 7 7 7 7 7 7 7
28 27 26 25 25 24 27 28 27 26 25 25 25 24 24 23 22 22 20 19 17 16 15 14 14 13 13 12 11 10 10 9 9 8 8 8 7 7 7 7 7 7 7 7
27 26 26 25 25 26 28 27 27 25 24 24 24 23 23 22 21 20 19 18 17 16 15 14 14 13 12 12 11 10 9 9 8 8 8 7 7 7 7 7 7 7 7 7
27 27 26 26 26 26 27 27 26 25 25 24 24 23 23 22 21 20 19 18 17 16 15 14 13 13 12 11 10 9 9 8 8 8 8 7 7 7 7 7 7 7 7 7
28 28 27 27 26 26 26 26 26 25 25 24 23 23 22 21 21 20 19 18 16 15 14 14 13 12 12 11 10 9 8 8 8 7 7 7 7 7 7 7 7 7 7 7
28 28 27 26 27 27 27 26 26 25 25 24 23 23 22 21 20 19 18 17 16 15 14 13 13 12 11 10 9 8 8 7 7 7 7 7 7 7 7 7 7 7 7 7
27 27 27 26 27 27 26 26 26 25 25 24 23 23 22 21 20 19 18 17 15 14 14 13 12 11 10 9 8 7 7 7 7 6 6 7 6 6 7 7 7 8 8 7
28 28 27 26 27 26 26 25 26 25 25 24 23 22 22 21 20 19 17 16 15 14 13 13 12 10 9 8 7 7 7 6 6 6 6 6 6 6 7 7 8 8 8 7

GEFSCGP_850_meantemp_030.txt.gz
Temperature
26 23 22 23 23 24 24 24 22 22 22 20 19 18 18 18 18 18 18 19 18 18 18 18 18 18 18 18 18 18 18 17 17 17 16 16 16 16 15 15 15 15 15 15
23 23 25 26 26 25 25 24 22 22 22 20 18 18 18 18 18 18 18 19 19 19 19 19 19 18 18 18 18 18 17 17 17 16 16 15 15 15 14 14 14 14 14 14
24 25 26 26 25 25 24 23 22 21 20 19 18 17 17 17 18 18 19 19 19 19 19 19 19 19 18 18 18 18 17 17 16 16 15 15 15 14 14 14 14 14 14 14
25 26 26 26 25 25 23 24 24 22 19 17 18 17 17 17 17 18 18 19 19 19 20 20 19 19 19 18 18 18 17 17 16 16 15 15 14 13 13 13 13 13 13 13
24 25 25 26 26 26 24 24 23 21 18 17 17 17 17 16 17 17 18 19 20 20 20 20 20 19 19 18 18 17 17 16 16 15 15 14 13 13 12 12 12 12 12 12
24 25 25 26 26 26 24 22 20 18 17 17 17 17 17 16 17 18 18 20 20 20 20 20 20 19 19 18 18 17 17 16 15 14 14 13 13 12 12 11 11 11 12 12
23 24 25 25 25 25 23 20 19 19 17 17 17 17 17 17 18 18 19 20 21 21 20 20 20 19 19 18 17 17 16 15 15 14 13 13 12 12 11 11 11 11 11 11
22 22 24 25 26 25 24 21 20 20 18 17 17 17 17 19 19 20 20 20 20 20 20 20 19 19 18 18 17 16 16 15 14 13 13 12 12 11 11 11 10 10 10 10
22 23 25 26 27 26 25 22 21 18 17 16 17 17 18 19 20 20 20 20 20 20 20 19 19 18 18 17 17 16 15 14 13 13 12 12 11 11 10 10 10 10 9 9
22 23 24 26 26 25 24 23 19 18 18 18 18 18 17 19 19 19 19 20 20 20 19 19 19 18 18 17 16 15 14 14 13 12 12 11 11 10 10 10 9 9 9 9
23 22 24 24 25 25 24 24 19 17 17 17 18 18 19 19 19 18 19 20 20 20 20 19 19 18 17 17 16 15 14 13 13 12 12 11 11 10 10 9 9 9 9 8
23 19 21 23 24 25 24 23 20 19 20 17 17 18 20 18 19 19 20 20 20 20 19 19 18 18 17 16 15 14 13 13 12 12 11 11 10 10 10 9 9 9 8 8
22 19 20 21 21 23 24 24 21 18 17 17 17 19 19 19 19 21 21 20 20 19 19 18 18 17 16 15 14 14 13 13 12 12 11 11 10 10 10 9 9 9 8 8
22 19 20 21 21 22 24 25 23 19 18 19 19 19 19 18 18 19 20 20 20 19 18 18 17 16 16 15 14 13 13 12 12 12 11 11 10 10 9 9 9 8 8 8
21 22 23 23 24 25 25 25 24 22 20 19 19 18 18 17 17 20 20 20 19 18 18 17 17 16 15 14 14 13 13 12 12 11 11 11 10 10 9 9 9 8 8 8
21 22 23 22 24 24 24 25 25 24 23 21 20 19 18 20 20 20 20 19 18 18 18 17 17 16 15 14 13 13 12 12 11 11 11 10 10 9 9 9 8 8 8 7
20 21 21 20 21 22 22 24 25 24 24 22 20 19 18 18 19 19 19 19 19 18 18 17 16 15 15 14 13 13 12 12 11 11 10 10 9 9 9 8 8 7 7 7
20 19 18 19 20 22 21 23 25 23 23 21 20 19 19 19 20 20 20 19 19 18 17 17 16 15 14 14 13 12 12 11 11 10 10 9 9 8 8 8 8 7 7 7
20 20 19 18 20 21 22 24 24 22 21 20 19 19 19 19 18 18 19 19 19 18 17 16 15 15 14 13 13 12 11 11 10 10 9 9 8 8 8 7 7 7 7 7
19 19 19 19 20 20 21 23 24 21 20 21 20 19 20 19 16 17 19 19 18 18 17 16 15 15 14 13 12 12 11 10 10 9 9 8 8 7 7 7 7 7 7 7
21 20 19 19 19 19 22 24 24 21 20 22 22 22 22 20 19 21 20 19 18 18 17 16 15 14 14 13 12 11 10 10 9 9 8 8 7 7 7 7 7 7 7 7
20 19 19 18 19 20 23 24 22 21 23 24 23 23 22 22 21 21 20 19 18 18 17 16 15 14 13 12 12 11 10 9 9 8 8 8 7 7 7 7 7 7 7 7
20 20 18 19 19 22 25 25 26 25 24 24 23 23 23 22 21 21 20 19 18 18 17 16 15 14 13 12 11 10 9 9 8 8 8 7 7 7 7 7 7 7 7 7
20 21 20 20 19 22 25 26 26 25 25 25 24 23 23 22 22 21 20 19 18 18 17 16 15 14 13 12 11 10 9 8 8 8 7 7 7 7 7 7 7 7 7 7
19 20 19 19 19 23 25 26 26 25 25 25 24 24 23 23 22 21 20 19 18 18 17 16 15 14 13 12 11 10 9 8 8 8 7 7 7 7 7 7 7 8 8 8
19 20 19 19 22 20 24 26 26 25 25 25 24 23 23 23 22 21 20 19 19 18 17 16 15 14 13 12 11 10 9 8 8 8 7 7 7 7 7 7 8 9 8 8